Flag for Netherlands Weather past 2 weeks in Amsterdam, Netherlands

Now
61 °F

Passing clouds.


Feels Like: 61 °F
Forecast: 42 / 56 °F
Wind: 10 mph from North

Location: Amsterdam Schiphol Airport

Current Time: Apr 21, 2015 at 1:51:53 PM

Latest Report: Apr 21, 2015 at 1:25 PM


Visibility: N/A

Pressure: 30.51 "Hg

Humidity: 48%

Dew point: 41 °F

Location of AmsterdamLocation

Historic Weather in Amsterdam — Graph

°F

Amsterdam temperature yesterday

Maximum temperature yesterday: 61 °F (at 2:55 PM)
Minimum temperature yesterday: 43 °F (at 4:25 AM)
Average temperature yesterday: 52 °F

Past Weeks' High & Low Weather Summary

 TemperatureHumidityPressure
High70 °F (Apr 15, 3:25 PM)100% (Apr 7, 1:25 AM)30.63 "Hg (Apr 7, 1:25 AM)
Low36 °F (Apr 7, 4:55 AM)39% (Apr 14, 1:55 PM)29.89 "Hg (Apr 11, 3:55 AM)
Average49 °F75%30.28 "Hg
* Reported Apr 6 12:25 PM — Apr 21 12:25 PM, Amsterdam, Weather by CustomWeather, © 2015

Note: Actual official high and low records may vary slightly from our data, if they occured in-between our weather recording intervals... More about our weather records

Advertising

Amsterdam weather history for previous 24 hours

 ConditionsComfort  
Time TempWeatherWind HumidityBarometerVisibility
12:25 PM
Tue, Apr 21
61 °FPassing clouds.9 mph48%30.51 "HgN/A
11:55 AM59 °FPassing clouds.8 mph51%30.51 "HgN/A
11:25 AM59 °FPassing clouds.7 mph51%30.51 "HgN/A
10:55 AM57 °FPassing clouds.8 mph51%30.48 "HgN/A
10:25 AM55 °FPassing clouds.9 mph59%30.48 "HgN/A
9:55 AM54 °FPassing clouds.8 mph63%30.48 "HgN/A
9:25 AM52 °FPassing clouds.8 mph72%30.48 "HgN/A
8:55 AM50 °FPassing clouds.8 mph82%30.48 "HgN/A
8:25 AM48 °FPassing clouds.7 mph87%30.48 "HgN/A
7:55 AM45 °FPassing clouds.5 mph93%30.48 "HgN/A
7:25 AM41 °FClear.6 mph100%30.48 "Hg10 mi
6:55 AM39 °FClear.6 mph93%30.45 "Hg10 mi
6:25 AM39 °FPassing clouds.3 mph93%30.45 "HgN/A
5:55 AM37 °FClear.6 mph93%30.45 "Hg10 mi
5:25 AM41 °FPassing clouds.5 mph100%30.45 "HgN/A
4:55 AM39 °FPassing clouds.3 mph100%30.45 "HgN/A
4:25 AM39 °FClear.6 mph87%30.45 "Hg10 mi
3:55 AM45 °FPassing clouds.5 mph87%30.45 "HgN/A
3:25 AM45 °FClear.6 mph87%30.45 "Hg10 mi
2:55 AM45 °FPassing clouds.6 mph87%30.45 "HgN/A
2:25 AM45 °FClear.7 mph87%30.45 "Hg10 mi
1:55 AM45 °FClear.6 mph81%30.45 "Hg10 mi
1:25 AM45 °FClear.7 mph87%30.45 "Hg10 mi
12:55 AM46 °FPassing clouds.6 mph82%30.42 "HgN/A
12:25 AM45 °FClear.6 mph81%30.42 "Hg10 mi
11:55 PM
Mon, Apr 20
46 °FPassing clouds.6 mph76%30.42 "HgN/A
11:25 PM48 °FPassing clouds.7 mph76%30.42 "HgN/A
10:55 PM48 °FPassing clouds.7 mph71%30.45 "HgN/A
10:25 PM50 °FPassing clouds.10 mph67%30.42 "HgN/A
9:55 PM52 °FPassing clouds.12 mph62%30.42 "HgN/A
9:25 PM52 °FSunny.9 mph67%30.42 "Hg10 mi
8:55 PM54 °FSunny.10 mph58%30.42 "Hg10 mi
8:25 PM55 °FPassing clouds.14 mph47%30.42 "HgN/A
7:55 PM57 °FPassing clouds.14 mph44%30.39 "HgN/A
7:25 PM57 °FPassing clouds.12 mph59%30.39 "HgN/A
6:55 PM59 °FPassing clouds.10 mph63%30.39 "HgN/A
6:25 PM59 °FPassing clouds.12 mph59%30.39 "HgN/A
5:55 PM59 °FPassing clouds.10 mph51%30.39 "HgN/A
5:25 PM59 °FPassing clouds.8 mph51%30.42 "HgN/A
4:55 PM59 °FPassing clouds.9 mph45%30.39 "HgN/A
4:25 PM61 °FPassing clouds.10 mph52%30.39 "HgN/A
3:55 PM61 °FPassing clouds.12 mph48%30.42 "HgN/A
3:25 PM61 °FPassing clouds.10 mph45%30.42 "HgN/A
2:55 PM61 °FPassing clouds.10 mph48%30.42 "HgN/A
2:25 PM59 °FPassing clouds.8 mph55%30.42 "HgN/A
1:55 PM59 °FPassing clouds.10 mph48%30.42 "HgN/A
1:25 PM59 °FPassing clouds.12 mph51%30.42 "HgN/A
Weather by CustomWeather, © 2015

See weather overviewHow to use our weather pages